sat.trackr.live / text

‹ back to catalog

SAUDISAT 3

NORAD 31118 · 2007-012B

PAYLOAD ACTIVE UNKNOWN

§ Identity

Operator
Country
SAUD
Launch date
2007-04-17
Launch site
TYMSC
Launch vehicle
Mass (kg)
RCS (m²)
0.70

Purposes: tech_demo

External: N2YO · Heavens-Above · Gunter

§ Orbital elements

Epoch: 2026-09-19T07:17:52.542240Z

Period
97.86 min
Inclination
98.1552°
Eccentricity
0.0013354
Mean motion
14.71472227 rev/d
Perigee alt
647.0 km
Apogee alt
665.8 km
Semi-major
7,034.5 km
B*
3.5744e-5
RAAN
212.8081°
Arg perigee
290.3885°
Mean anomaly
69.5887°
Rev number
4,158

§ Raw data

SAUDISAT 31 31118U 07012B   26262.30408035  .00000171  00000+0  35744-4 0  99902 31118  98.1552 212.8081 0013354 290.3885  69.5887 14.71472227 41587

JSON: /api/v1/satellites/31118 · /tle

For live sub-satellite position, see the globe view (requires WebGL).

§ Visibility from observer

Set your observer location to see the next 7 days of passes ≥ 10°. The values pass through the URL so the page stays shareable.

No JS? Fill the form by hand. The geolocation button needs JavaScript.